Notices

What's New in latest Release from April 7th, 2021:

- Updated Glossary, including Speed of Maximum Gust, and Total Hourly Precipitation

- Updated national and regional climate services offices contacts and prices information

- Addition of station inventory lists for 1981-2010, 1971-2000, and 1961-1990 Normals.

If you haven't already, please take our survey and provide feedback about our website: https://eccc.sondage-survey.ca/f/LanguageSelection.aspx?s=442ca660-fcf1-47c0-95a9-59707d6fd709

Hourly Data Report for April 17, 2021

KUGAARUK CLIMATE
NUNAVUT
Current Station Operator: ECCC - MSC

68°32'15.060" N
89°47'47.020" W
15.80 m
2303094
71407
NBB

Download Data

Hourly Data (April 2021)
Hourly Data Report for April 17, 2021
TIME
LST
Temp Definition
°C
Dew Point Definition
°C
Rel Hum Definition
%
Precip. Amount Definition
mm

Wind Dir Definition
10's deg

Wind Spd Definition
km/h
Visibility Definition
km
Stn Press Definition
kPa
Hmdx Definition


Wind Chill Definition


Weather Definition


00:00 -19.1 -22.4 76 0.0 24 17   101.82   -29 LegendNANA
01:00 -18.4 -21.4 77 0.0 24 35   101.73   -31 LegendNANA
02:00 -19.4 -22.1 79 0.0 24 18   101.78   -29 LegendNANA
03:00 -19.0 -21.5 80 0.0 24 21   101.75   -29 LegendNANA
04:00 -19.8 -22.8 77 0.0 24 11   101.74   -27 LegendNANA
05:00 -18.6 -21.9 75 0.0 23 24   101.70   -30 LegendNANA
06:00 -19.0 -22.2 76 0.0 24 25   101.68   -30 LegendNANA
07:00 -18.8 -22.3 74 0.0 24 23   101.61   -30 LegendNANA
08:00 -17.4 -21.5 70 0.0 25 21   101.57   -27 LegendNANA
09:00 -17.4 -21.5 71 0.0 25 28   101.49   -29 LegendNANA
10:00 -16.8 -20.7 72 0.0 25 31   101.44   -29 LegendNANA
11:00 -15.0 -19.2 71 0.0 26 25   101.43   -25 LegendNANA
12:00 -15.1 -19.4 69 0.0 27 23   101.43   -25 LegendNANA
13:00 -14.9 -19.7 67 0.0 29 30   101.41   -26 LegendNANA
14:00 -14.7 -19.1 70 0.0 29 21   101.44   -24 LegendNANA
15:00 -15.3 -18.8 74 0.0 30 23   101.46   -25 LegendNANA
16:00 -15.0 -18.3 76 0.0 30 19   101.47   -24 LegendNANA
17:00 -15.0 -17.9 79 0.0 31 19   101.47   -24 LegendNANA
18:00 -14.8 -17.9 77 0.0 36 15   101.52   -23 LegendNANA
19:00 -15.4 -18.5 77 0.0 3 3   101.57   -18 LegendNANA
20:00 -15.3 -18.2 79 0.0 1 10   101.57   -22 LegendNANA
21:00 -15.4 -17.7 83 0.0 36 24   101.57   -26 LegendNANA
22:00 -16.0 -18.6 80 0.0 34 19   101.59   -25 LegendNANA
23:00 -15.8 -18.5 80 0.0 32 11   101.63   -23 LegendNANA

Notes on Data Quality.

Legend

  • E = Estimated
  • M = Missing
  • NA = Not Available*
  • [empty] = Indicates an unobserved value
Date modified: